AirNav   Everest Fuels
 
 1430 users online  

OK93 Airman Acres Airport
Collinsville, Oklahoma, USA

GOING TO COLLINSVILLE?


FAA INFORMATION EFFECTIVE 28 FEBRUARY 2019

Location

FAA Identifier: OK93
Lat/Long: 36-20-00.3360N / 095-53-00.9650W
36-20.005600N / 095-53.016083W
36.3334267 / -95.8836014
(estimated)
Elevation: 695 ft. / 212 m (estimated)
Variation: 06E (1985)
From city: 3 miles SW of COLLINSVILLE, OK
Time zone: UTC -6 (UTC -5 during Daylight Saving Time)
Zip code: 74021

Airport Operations

Airport use: Private use. Permission required prior to landing
Activation date: 11/1964
Control tower: no
ARTCC: KANSAS CITY CENTER
FSS: MC ALESTER FLIGHT SERVICE STATION
Attendance: CONTINUOUS
Wind indicator: yes
Segmented circle: no
Lights: SS-SR

Airport Communications

WX ASOS at TUL (8 nm S): PHONE 918-831-6772
WX AWOS-3 at OWP (16 nm SW): 118.325 (918-246-2635)
WX ASOS at RVS (18 nm S): PHONE 918-299-0740
WX AWOS-3 at GCM (20 nm E): 119.925 (918-343-0184)

Nearby radio navigation aids

VOR radial/distance  VOR name  Freq  Var
TULr323/9.4TULSA VORTAC114.4008E
BVOr160/30.7BARTLESVILLE VOR/DME117.9008E
OKMr351/38.4OKMULGEE VOR/DME114.9008E

 
NDB name  Hdg/Dist  Freq  Var  ID
OILLR358/14.233803ETU - ..-
WILLIAM POGUE048/16.336206EOWP --- .-- .--.

Airport Services

Airframe service: MAJOR
Powerplant service: MAJOR

Runway Information

Runway N/S

Dimensions: 2650 x 230 ft. / 808 x 70 m
Surface: turf
Runway edge lights: low intensity
RUNWAY N  RUNWAY S
Traffic pattern: leftleft
Obstructions: trees, 300 ft. from runway
AND WIRES.
none

Airport Ownership and Management from official FAA records

Ownership: Privately-owned
Owner: AIRMAN ACRES INC
12407 N 73 E AVE
COLLINSVILLE, OK 74021
Phone 918-371-4498
Manager: DONALD R. SIEMENS
12407 N 73 E. AVE.
COLLINSVILLE, OK 74021
Phone 918-371-2014
IF DONALD SIEMENS IS UNAVAILABLE CALL AUBREY POLLOCK: 12300 N 73 EAST AVE, 918-371-4498

Airport Operational Statistics

Aircraft based on the field: 30
Single engine airplanes: 30
    

Additional Remarks

HOMES ON BOTH SIDES OF RWY.

Instrument Procedures

There are no published instrument procedures at OK93.

Some nearby airports with instrument procedures:

KTUL - Tulsa International Airport (8 nm S)
KOWP - William R Pogue Municipal Airport (16 nm SW)
KRVS - Richard Lloyd Jones Jr Airport (18 nm S)
KGCM - Claremore Regional Airport (20 nm E)
KBVO - Bartlesville Municipal Airport (27 nm N)
 
Loc | Ops | Rwys | IFR | FBO | Links
Com | Nav | Svcs | Stats | Notes
Area around OK93 (Airman Acres Airport)
 
Road maps at: MapQuest Bing Google
 
Aerial photo
WARNING: Photo may not be current or correct
Aerial photo of OK93 (Airman Acres Airport)
Do you have a better or more recent aerial photo of Airman Acres Airport that you would like to share? If so, please send us your photo.

 
Sectional chart

 
Airport distance calculator
Flying to Airman Acres Airport? Find the distance to fly.

From to OK93

Sunrise and sunset
Times for 26-Mar-2019
 Local
(UTC-5)
 Zulu
(UTC)
Morning civil twilight06:5411:54
Sunrise07:1912:19
Sunset19:3900:39
Evening civil twilight20:0501:05

Current date and time
Zulu (UTC)  26-Mar-2019 19:56:32
Local (UTC-5)  26-Mar-2019 14:56:32
 
METAR
KTUL 
8nm S 
261753Z 12005KT 10SM FEW035 16/07 A3038 RMK AO2 SLP287 T01610067 10167 20033 58009
KOWP 
16nm SW 
261815Z AUTO 00000KT 10SM CLR 18/06 A3038 RMK AO2 T01820059 PWINO
KRVS 
18nm S 
261753Z 03006KT 10SM CLR 17/06 A3038 RMK AO2 SLP292 T01720061 10172 20028 58009
KGCM 
19nm E 
261815Z AUTO 05005KT 10SM CLR 16/04 A3040 RMK AO2 TSNO
TAF
KTUL 
8nm S 
261722Z 2618/2718 VRB04KT P6SM FEW028 FM262300 12004KT P6SM FEW250 FM271500 18012G22KT P6SM SCT250
KRVS 
18nm S 
261722Z 2618/2718 08003KT P6SM FEW028 FM262300 VRB03KT P6SM FEW250 FM271500 18010G18KT P6SM SCT250
NOTAMs
Click for the latest NOTAMs
NOTAMs are issued by the DoD/FAA and will open in a separate window not controlled by AirNav.

 

 
 

Would you like to see your business listed on this page?

 If your business provides an interesting product or service to pilots, flight crews, aircraft, or users of the Airman Acres Airport, you should consider listing it here.  To start the listing process, click on the button below
 
Add a business
 

Other Pages about Airman Acres Airport

Update a link
 
Copyright © AirNav, LLC. All rights reserved. Privacy Policy  Contact